Location: Aalsum
(53.3404°N, 6.0062°E)
Time: 13:04:58
(UTC+00:00)

Cosmos 1943 Rocket - Visible Passes

Search period start: 02 October 2023 00:00
Search period end: 12 October 2023 00:00
Orbit: 810 x 845 km, 71.0° (Epoch: 01 October)

Date Brightness Start Highest point End Pass type
(mag) Time Alt. Az. Time Alt. Az. Time Alt. Az.
02 Oct 2.5 18:01:03 10° NNW 18:06:36 50° NE 18:12:04 10° SE visible
02 Oct 3.4 19:45:03 10° NW 19:50:16 39° WSW 19:53:55 18° SSW visible
03 Oct 2.6 17:41:43 10° NNW 17:47:12 46° NE 17:52:37 10° ESE visible
03 Oct 3.2 19:25:38 10° NW 19:30:58 43° WSW 19:35:34 13° S visible
04 Oct 3.1 19:06:13 10° NW 19:11:40 48° WSW 19:17:02 10° S visible
05 Oct 2.9 18:46:50 10° NW 18:52:21 53° WSW 18:57:47 10° S visible
06 Oct 2.8 18:27:27 10° NW 18:33:01 60° WSW 18:38:33 10° SSE visible
06 Oct 5.0 20:13:49 10° WNW 20:15:35 11° W 20:17:21 10° WSW visible
07 Oct 2.6 18:08:04 10° NW 18:13:42 66° WSW 18:19:16 10° SSE visible
07 Oct 4.9 19:53:51 10° WNW 19:56:22 13° W 19:58:52 10° WSW visible
08 Oct 2.5 17:48:42 10° NW 17:54:23 73° WSW 17:59:58 10° SSE visible
08 Oct 4.9 19:34:05 10° WNW 19:37:08 15° W 19:40:09 10° SW visible
09 Oct 2.4 17:29:20 10° NNW 17:35:02 81° WSW 17:40:39 10° SSE visible
09 Oct 4.9 19:14:26 10° WNW 19:17:54 17° W 19:21:20 10° SW visible
10 Oct 4.8 18:54:50 10° WNW 18:58:39 19° W 19:02:27 10° SW visible
11 Oct 4.8 18:35:17 10° NW 18:39:24 21° W 18:43:29 10° SSW visible
